Overview Statistics Trail Chart Weather Telemetry Raw packets
 

This is the latest recevied weather packets stored in our database for station/object IU2RPR-3. If no packets are shown the sender has not sent any weather packets the latest 10 day(s).

<< 1 2 3 4 5 6 >>
Time Temp. Humidity Pressure Rain* Wind** Luminosity Snow
1788506784 24.44° C 57% 1018.7 hPa - - - -
1788505583 23.33° C 60% 1018.8 hPa - - - -
1788504382 22.78° C 63% 1018.8 hPa - - - -
1788503180 22.22° C 65% 1018.7 hPa - - - -
1788501979 21.67° C 65% 1018.8 hPa - - - -
1788500778 21.11° C 66% 1018.9 hPa - - - -
1788499577 20.56° C 66% 1018.9 hPa - - - -
1788498375 20.56° C 68% 1018.8 hPa - - - -
1788497174 20.56° C 68% 1018.7 hPa - - - -
1788495973 20.56° C 70% 1018.7 hPa - - - -
1788494772 20.56° C 71% 1018.5 hPa - - - -
1788493570 21.11° C 69% 1018.5 hPa - - - -
1788492369 21.11° C 68% 1018.4 hPa - - - -
1788491168 21.11° C 67% 1018.3 hPa - - - -
1788489966 21.11° C 67% 1018.2 hPa - - - -
1788488765 21.67° C 67% 1018 hPa - - - -
1788487564 21.67° C 64% 1017.9 hPa - - - -
1788486363 22.22° C 63% 1017.9 hPa - - - -
1788485161 22.22° C 64% 1017.9 hPa - - - -
1788483960 22.22° C 62% 1017.8 hPa - - - -
1788482759 22.22° C 63% 1017.9 hPa - - - -
1788481558 22.78° C 61% 1017.9 hPa - - - -
1788480356 22.78° C 62% 1018 hPa - - - -
1788479155 22.78° C 62% 1018.2 hPa - - - -
1788477954 23.33° C 59% 1018.1 hPa - - - -

* Rain since midnight (hover to see other rain measurements)
** Current wind speed in m/s (hover to see current wind gust speed)